Date_Time,Julian_Date,Latitude,Longitude,Instrument_Depth,U,V,Speed,Direction
(yyyy-mm-dd hh:mn:ss UTC),(JD),(+ deg. North),(+ deg. East),(m),(cm/s),(cm/s),(cm/s),(deg True)
1987-11-09 07:00:00 UTC,2447108.791667,26.7400,-91.9950,0300,2.36,7.97,8.3121,16.4946
1987-11-09 07:30:00 UTC,2447108.812500,26.7400,-91.9950,0300,2.55,8.40,8.7785,16.8868
1987-11-09 08:00:00 UTC,2447108.833333,26.7400,-91.9950,0300,1.64,10.14,10.2718,9.1872
1987-11-09 08:30:00 UTC,2447108.854167,26.7400,-91.9950,0300,-2.12,9.19,9.4314,347.0099
1987-11-09 09:00:00 UTC,2447108.875000,26.7400,-91.9950,0300,-2.16,8.03,8.3154,344.9443
1987-11-09 09:30:00 UTC,2447108.895833,26.7400,-91.9950,0300,-1.62,10.90,11.0197,351.5464
1987-11-09 10:00:00 UTC,2447108.916667,26.7400,-91.9950,0300,-3.45,12.22,12.6977,344.2343
1987-11-09 10:30:00 UTC,2447108.937500,26.7400,-91.9950,0300,-2.06,12.81,12.9746,350.8644
1987-11-09 11:00:00 UTC,2447108.958333,26.7400,-91.9950,0300,-2.76,13.45,13.7303,348.4036
1987-11-09 11:30:00 UTC,2447108.979167,26.7400,-91.9950,0300,-3.63,13.82,14.2888,345.2830
1987-11-09 12:00:00 UTC,2447109.000000,26.7400,-91.9950,0300,-4.64,14.69,15.4054,342.4707
1987-11-09 12:30:00 UTC,2447109.020833,26.7400,-91.9950,0300,-4.36,17.00,17.5502,345.6154
1987-11-09 13:00:00 UTC,2447109.041667,26.7400,-91.9950,0300,-3.85,18.75,19.1412,348.3965
1987-11-09 13:30:00 UTC,2447109.062500,26.7400,-91.9950,0300,-4.63,19.53,20.0713,346.6631
1987-11-09 14:00:00 UTC,2447109.083333,26.7400,-91.9950,0300,-2.19,20.80,20.9150,353.9896
1987-11-09 14:30:00 UTC,2447109.104167,26.7400,-91.9950,0300,-1.55,22.63,22.6830,356.0818
1987-11-09 15:00:00 UTC,2447109.125000,26.7400,-91.9950,0300,0.75,23.23,23.2421,1.8492
1987-11-09 15:30:00 UTC,2447109.145833,26.7400,-91.9950,0300,3.29,23.01,23.2440,8.1371
1987-11-09 16:00:00 UTC,2447109.166667,26.7400,-91.9950,0300,4.83,23.50,23.9912,11.6144
1987-11-09 16:30:00 UTC,2447109.187500,26.7400,-91.9950,0300,6.44,22.24,23.1536,16.1493
1987-11-09 17:00:00 UTC,2447109.208333,26.7400,-91.9950,0300,7.59,21.68,22.9702,19.2948
1987-11-09 17:30:00 UTC,2447109.229167,26.7400,-91.9950,0300,9.56,22.01,23.9965,23.4776
1987-11-09 18:00:00 UTC,2447109.250000,26.7400,-91.9950,0300,10.86,23.05,25.4802,25.2275
1987-11-09 18:30:00 UTC,2447109.270833,26.7400,-91.9950,0300,12.29,21.79,25.0170,29.4239
1987-11-09 19:00:00 UTC,2447109.291667,26.7400,-91.9950,0300,12.38,19.12,22.7780,32.9226
1987-11-09 19:30:00 UTC,2447109.312500,26.7400,-91.9950,0300,12.90,18.66,22.6849,34.6568
1987-11-09 20:00:00 UTC,2447109.333333,26.7400,-91.9950,0300,13.62,17.79,22.4051,37.4376
1987-11-09 20:30:00 UTC,2447109.354167,26.7400,-91.9950,0300,13.02,16.37,20.9164,38.4972
1987-11-09 21:00:00 UTC,2447109.375000,26.7400,-91.9950,0300,12.89,13.64,18.7670,43.3807
1987-11-09 21:30:00 UTC,2447109.395833,26.7400,-91.9950,0300,11.63,12.01,16.7182,44.0791
1987-11-09 22:00:00 UTC,2447109.416667,26.7400,-91.9950,0300,12.25,10.53,16.1537,49.3179
1987-11-09 22:30:00 UTC,2447109.437500,26.7400,-91.9950,0300,11.85,10.84,16.0601,47.5487
1987-11-09 23:00:00 UTC,2447109.458333,26.7400,-91.9950,0300,11.03,9.37,14.4727,49.6521
1987-11-09 23:30:00 UTC,2447109.479167,26.7400,-91.9950,0300,9.82,8.34,12.8836,49.6592
1987-11-10 00:00:00 UTC,2447109.500000,26.7400,-91.9950,0300,8.96,8.60,12.4194,46.1745
1987-11-10 00:30:00 UTC,2447109.520833,26.7400,-91.9950,0300,9.49,8.16,12.5158,49.3093
1987-11-10 01:00:00 UTC,2447109.541667,26.7400,-91.9950,0300,9.46,8.33,12.6048,48.6345
1987-11-10 01:30:00 UTC,2447109.562500,26.7400,-91.9950,0300,7.62,8.47,11.3932,41.9760
1987-11-10 02:00:00 UTC,2447109.583333,26.7400,-91.9950,0300,7.17,8.37,11.0212,40.5844
1987-11-10 02:30:00 UTC,2447109.604167,26.7400,-91.9950,0300,6.86,7.00,9.8010,44.4213
1987-11-10 03:00:00 UTC,2447109.625000,26.7400,-91.9950,0300,6.92,6.41,9.4326,47.1910
1987-11-10 03:30:00 UTC,2447109.645833,26.7400,-91.9950,0300,6.42,6.39,9.0581,45.1342
1987-11-10 04:00:00 UTC,2447109.666667,26.7400,-91.9950,0300,7.37,7.43,10.4653,44.7677
1987-11-10 04:30:00 UTC,2447109.687500,26.7400,-91.9950,0300,6.87,7.64,10.2746,41.9623
1987-11-10 05:00:00 UTC,2447109.708333,26.7400,-91.9950,0300,5.45,5.91,8.0393,42.6812
1987-11-10 05:30:00 UTC,2447109.729167,26.7400,-91.9950,0300,4.13,4.58,6.1671,42.0425
1987-11-10 06:00:00 UTC,2447109.750000,26.7400,-91.9950,0300,3.97,4.47,5.9784,41.6097
1987-11-10 06:30:00 UTC,2447109.770833,26.7400,-91.9950,0300,3.93,4.76,6.1727,39.5441
1987-11-10 07:00:00 UTC,2447109.791667,26.7400,-91.9950,0300,4.00,3.79,5.5104,46.5442
1987-11-10 07:30:00 UTC,2447109.812500,26.7400,-91.9950,0300,2.89,3.68,4.6792,38.1435
1987-11-10 08:00:00 UTC,2447109.833333,26.7400,-91.9950,0300,2.17,2.45,3.2728,41.5318
1987-11-10 08:30:00 UTC,2447109.854167,26.7400,-91.9950,0300,1.76,2.42,2.9923,36.0274
1987-11-10 09:00:00 UTC,2447109.875000,26.7400,-91.9950,0300,0.69,2.82,2.9032,13.7490
1987-11-10 09:30:00 UTC,2447109.895833,26.7400,-91.9950,0300,-1.56,3.71,4.0246,337.1940
1987-11-10 10:00:00 UTC,2447109.916667,26.7400,-91.9950,0300,-2.53,4.69,5.3289,331.6555
1987-11-10 10:30:00 UTC,2447109.937500,26.7400,-91.9950,0300,-2.99,5.39,6.1638,330.9815
1987-11-10 11:00:00 UTC,2447109.958333,26.7400,-91.9950,0300,-3.74,6.36,7.3782,329.5423
1987-11-10 11:30:00 UTC,2447109.979167,26.7400,-91.9950,0300,-3.13,8.00,8.5905,338.6321
1987-11-10 12:00:00 UTC,2447110.000000,26.7400,-91.9950,0300,-3.47,8.27,8.9685,337.2376
1987-11-10 12:30:00 UTC,2447110.020833,26.7400,-91.9950,0300,-4.26,8.63,9.6242,333.7278
1987-11-10 13:00:00 UTC,2447110.041667,26.7400,-91.9950,0300,-6.41,9.53,11.4852,326.0747
1987-11-10 13:30:00 UTC,2447110.062500,26.7400,-91.9950,0300,-5.50,12.47,13.6290,336.1997
1987-11-10 14:00:00 UTC,2447110.083333,26.7400,-91.9950,0300,-5.69,13.11,14.2915,336.5382
1987-11-10 14:30:00 UTC,2447110.104167,26.7400,-91.9950,0300,-4.02,13.90,14.4696,343.8697
1987-11-10 15:00:00 UTC,2447110.125000,26.7400,-91.9950,0300,-2.39,14.27,14.4688,350.4921
1987-11-10 15:30:00 UTC,2447110.145833,26.7400,-91.9950,0300,-2.57,15.95,16.1557,350.8467
1987-11-10 16:00:00 UTC,2447110.166667,26.7400,-91.9950,0300,-2.25,17.31,17.4556,352.5941
1987-11-10 16:30:00 UTC,2447110.187500,26.7400,-91.9950,0300,-1.17,17.14,17.1799,356.0950
1987-11-10 17:00:00 UTC,2447110.208333,26.7400,-91.9950,0300,-0.80,18.28,18.2975,357.4941
1987-11-10 17:30:00 UTC,2447110.229167,26.7400,-91.9950,0300,3.72,17.54,17.9301,11.9742
1987-11-10 18:00:00 UTC,2447110.250000,26.7400,-91.9950,0300,3.23,17.92,18.2088,10.2176
1987-11-10 18:30:00 UTC,2447110.270833,26.7400,-91.9950,0300,4.08,17.17,17.6481,13.3669
1987-11-10 19:00:00 UTC,2447110.291667,26.7400,-91.9950,0300,5.03,16.23,16.9916,17.2192
1987-11-10 19:30:00 UTC,2447110.312500,26.7400,-91.9950,0300,4.97,14.19,15.0352,19.3026
1987-11-10 20:00:00 UTC,2447110.333333,26.7400,-91.9950,0300,4.25,14.03,14.6596,16.8527
1987-11-10 20:30:00 UTC,2447110.354167,26.7400,-91.9950,0300,3.92,13.54,14.0960,16.1464
1987-11-10 21:00:00 UTC,2447110.375000,26.7400,-91.9950,0300,3.24,12.28,12.7002,14.7803
1987-11-10 21:30:00 UTC,2447110.395833,26.7400,-91.9950,0300,4.24,12.86,13.5409,18.2476
1987-11-10 22:00:00 UTC,2447110.416667,26.7400,-91.9950,0300,4.71,12.70,13.5453,20.3481
1987-11-10 22:30:00 UTC,2447110.437500,26.7400,-91.9950,0300,4.88,12.03,12.9821,22.0801
1987-11-10 23:00:00 UTC,2447110.458333,26.7400,-91.9950,0300,4.94,10.99,12.0492,24.2039
1987-11-10 23:30:00 UTC,2447110.479167,26.7400,-91.9950,0300,4.32,10.84,11.6691,21.7285
1987-11-11 00:00:00 UTC,2447110.500000,26.7400,-91.9950,0300,5.33,10.80,12.0436,26.2672
1987-11-11 00:30:00 UTC,2447110.520833,26.7400,-91.9950,0300,5.86,10.10,11.6769,30.1222
1987-11-11 01:00:00 UTC,2447110.541667,26.7400,-91.9950,0300,6.38,10.00,11.8619,32.5379
1987-11-11 01:30:00 UTC,2447110.562500,26.7400,-91.9950,0300,6.73,9.99,12.0455,33.9671
1987-11-11 02:00:00 UTC,2447110.583333,26.7400,-91.9950,0300,7.20,8.83,11.3934,39.1939
1987-11-11 02:30:00 UTC,2447110.604167,26.7400,-91.9950,0300,7.24,8.55,11.2036,40.2574
1987-11-11 03:00:00 UTC,2447110.625000,26.7400,-91.9950,0300,7.23,7.94,10.7386,42.3203
1987-11-11 03:30:00 UTC,2447110.645833,26.7400,-91.9950,0300,7.39,7.54,10.5576,44.4244
1987-11-11 04:00:00 UTC,2447110.666667,26.7400,-91.9950,0300,6.73,7.76,10.2718,40.9341
1987-11-11 04:30:00 UTC,2447110.687500,26.7400,-91.9950,0300,6.42,6.39,9.0581,45.1342
1987-11-11 05:00:00 UTC,2447110.708333,26.7400,-91.9950,0300,6.13,6.03,8.5987,45.4712
1987-11-11 05:30:00 UTC,2447110.729167,26.7400,-91.9950,0300,5.79,5.70,8.1249,45.4488
1987-11-11 06:00:00 UTC,2447110.750000,26.7400,-91.9950,0300,5.57,6.04,8.2162,42.6818
1987-11-11 06:30:00 UTC,2447110.770833,26.7400,-91.9950,0300,6.51,5.32,8.4073,50.7442
1987-11-11 07:00:00 UTC,2447110.791667,26.7400,-91.9950,0300,6.58,4.27,7.8441,57.0190
1987-11-11 07:30:00 UTC,2447110.812500,26.7400,-91.9950,0300,5.94,4.23,7.2922,54.5445
1987-11-11 08:00:00 UTC,2447110.833333,26.7400,-91.9950,0300,4.94,5.10,7.1003,44.0870
1987-11-11 08:30:00 UTC,2447110.854167,26.7400,-91.9950,0300,3.64,4.75,5.9843,37.4635
1987-11-11 09:00:00 UTC,2447110.875000,26.7400,-91.9950,0300,3.31,4.06,5.2383,39.1894
1987-11-11 09:30:00 UTC,2447110.895833,26.7400,-91.9950,0300,3.05,3.79,4.8648,38.8253
1987-11-11 10:00:00 UTC,2447110.916667,26.7400,-91.9950,0300,2.19,4.44,4.9507,26.2545
1987-11-11 10:30:00 UTC,2447110.937500,26.7400,-91.9950,0300,1.55,4.70,4.9490,18.2519
1987-11-11 11:00:00 UTC,2447110.958333,26.7400,-91.9950,0300,1.53,5.30,5.5164,16.1023
1987-11-11 11:30:00 UTC,2447110.979167,26.7400,-91.9950,0300,0.70,5.66,5.7031,7.0502
1987-11-11 12:00:00 UTC,2447111.000000,26.7400,-91.9950,0300,0.83,5.83,5.8888,8.1026
1987-11-11 12:30:00 UTC,2447111.020833,26.7400,-91.9950,0300,0.18,5.60,5.6029,1.8410
1987-11-11 13:00:00 UTC,2447111.041667,26.7400,-91.9950,0300,0.20,6.16,6.1632,1.8596
1987-11-11 13:30:00 UTC,2447111.062500,26.7400,-91.9950,0300,0.82,8.74,8.7784,5.3599
1987-11-11 14:00:00 UTC,2447111.083333,26.7400,-91.9950,0300,1.09,8.81,8.8772,7.0530
1987-11-11 14:30:00 UTC,2447111.104167,26.7400,-91.9950,0300,1.38,7.63,7.7538,10.2520
1987-11-11 15:00:00 UTC,2447111.125000,26.7400,-91.9950,0300,1.66,8.05,8.2194,11.6517
1987-11-11 15:30:00 UTC,2447111.145833,26.7400,-91.9950,0300,1.48,8.18,8.3128,10.2555
1987-11-11 16:00:00 UTC,2447111.166667,26.7400,-91.9950,0300,1.92,8.09,8.3147,13.3510
1987-11-11 16:30:00 UTC,2447111.187500,26.7400,-91.9950,0300,0.76,8.75,8.7829,4.9641
1987-11-11 17:00:00 UTC,2447111.208333,26.7400,-91.9950,0300,2.22,8.21,8.5049,15.1310
1987-11-11 17:30:00 UTC,2447111.229167,26.7400,-91.9950,0300,0.77,8.28,8.3157,5.3129
1987-11-11 18:00:00 UTC,2447111.250000,26.7400,-91.9950,0300,0.74,9.12,9.1500,4.6388
1987-11-11 18:30:00 UTC,2447111.270833,26.7400,-91.9950,0300,0.83,9.49,9.5262,4.9984
1987-11-11 19:00:00 UTC,2447111.291667,26.7400,-91.9950,0300,1.56,9.68,9.8049,9.1549
1987-11-11 19:30:00 UTC,2447111.312500,26.7400,-91.9950,0300,1.23,10.95,11.0189,6.4091
1987-11-11 20:00:00 UTC,2447111.333333,26.7400,-91.9950,0300,0.37,11.39,11.3960,1.8606
1987-11-11 20:30:00 UTC,2447111.354167,26.7400,-91.9950,0300,-0.28,10.92,10.9236,358.5312
1987-11-11 21:00:00 UTC,2447111.375000,26.7400,-91.9950,0300,-0.75,10.06,10.0879,355.7363
1987-11-11 21:30:00 UTC,2447111.395833,26.7400,-91.9950,0300,-1.12,10.02,10.0824,353.6222
1987-11-11 22:00:00 UTC,2447111.416667,26.7400,-91.9950,0300,-0.46,10.45,10.4601,357.4795
1987-11-11 22:30:00 UTC,2447111.437500,26.7400,-91.9950,0300,-0.48,11.01,11.0205,357.5037
1987-11-11 23:00:00 UTC,2447111.458333,26.7400,-91.9950,0300,-0.48,10.92,10.9305,357.4831
1987-11-11 23:30:00 UTC,2447111.479167,26.7400,-91.9950,0300,0.58,11.47,11.4847,2.8948
1987-11-12 00:00:00 UTC,2447111.500000,26.7400,-91.9950,0300,0.85,10.52,10.5543,4.6194
1987-11-12 00:30:00 UTC,2447111.520833,26.7400,-91.9950,0300,0.74,10.71,10.7355,3.9525
1987-11-12 01:00:00 UTC,2447111.541667,26.7400,-91.9950,0300,1.01,11.54,11.5841,5.0019
1987-11-12 01:30:00 UTC,2447111.562500,26.7400,-91.9950,0300,2.90,11.60,11.9570,14.0362
1987-11-12 02:00:00 UTC,2447111.583333,26.7400,-91.9950,0300,2.36,11.15,11.3970,11.9508
1987-11-12 02:30:00 UTC,2447111.604167,26.7400,-91.9950,0300,3.14,10.85,11.2952,16.1405
1987-11-12 03:00:00 UTC,2447111.625000,26.7400,-91.9950,0300,2.46,10.65,10.9304,13.0064
1987-11-12 03:30:00 UTC,2447111.645833,26.7400,-91.9950,0300,2.41,9.60,9.8979,14.0924
1987-11-12 04:00:00 UTC,2447111.666667,26.7400,-91.9950,0300,2.23,9.65,9.9043,13.0120
1987-11-12 04:30:00 UTC,2447111.687500,26.7400,-91.9950,0300,3.85,9.02,9.8073,23.1142
1987-11-12 05:00:00 UTC,2447111.708333,26.7400,-91.9950,0300,3.88,9.91,10.6425,21.3815
1987-11-12 05:30:00 UTC,2447111.729167,26.7400,-91.9950,0300,3.85,9.32,10.0839,22.4450
1987-11-12 06:00:00 UTC,2447111.750000,26.7400,-91.9950,0300,3.30,9.24,9.8116,19.6538
1987-11-12 06:30:00 UTC,2447111.770833,26.7400,-91.9950,0300,3.27,10.13,10.6447,17.8903
1987-11-12 07:00:00 UTC,2447111.791667,26.7400,-91.9950,0300,3.79,9.85,10.5540,21.0453
1987-11-12 07:30:00 UTC,2447111.812500,26.7400,-91.9950,0300,2.44,9.98,10.2739,13.7387
1987-11-12 08:00:00 UTC,2447111.833333,26.7400,-91.9950,0300,1.53,9.50,9.6224,9.1491
1987-11-12 08:30:00 UTC,2447111.854167,26.7400,-91.9950,0300,3.09,10.67,11.1084,16.1509
1987-11-12 09:00:00 UTC,2447111.875000,26.7400,-91.9950,0300,3.38,9.11,9.7168,20.3559
1987-11-12 09:30:00 UTC,2447111.895833,26.7400,-91.9950,0300,1.81,9.07,9.2488,11.2856
1987-11-12 10:00:00 UTC,2447111.916667,26.7400,-91.9950,0300,2.90,8.98,9.4367,17.8973
1987-11-12 10:30:00 UTC,2447111.937500,26.7400,-91.9950,0300,5.05,7.41,8.9672,34.2749
1987-11-12 11:00:00 UTC,2447111.958333,26.7400,-91.9950,0300,5.99,7.53,9.6219,38.5017
1987-11-12 11:30:00 UTC,2447111.979167,26.7400,-91.9950,0300,5.86,7.27,9.3377,38.8706
1987-11-12 12:00:00 UTC,2447112.000000,26.7400,-91.9950,0300,4.79,7.02,8.4985,34.3071
1987-11-12 12:30:00 UTC,2447112.020833,26.7400,-91.9950,0300,4.46,6.45,7.8418,34.6628
1987-11-12 13:00:00 UTC,2447112.041667,26.7400,-91.9950,0300,4.42,5.56,7.1028,38.4834
1987-11-12 13:30:00 UTC,2447112.062500,26.7400,-91.9950,0300,3.74,5.70,6.8174,33.2705
1987-11-12 14:00:00 UTC,2447112.083333,26.7400,-91.9950,0300,3.21,5.70,6.5417,29.3864
1987-11-12 14:30:00 UTC,2447112.104167,26.7400,-91.9950,0300,2.92,5.64,6.3511,27.3720
1987-11-12 15:00:00 UTC,2447112.125000,26.7400,-91.9950,0300,2.83,6.20,6.8153,24.5344
1987-11-12 15:30:00 UTC,2447112.145833,26.7400,-91.9950,0300,2.53,5.83,6.3553,23.4590
1987-11-12 16:00:00 UTC,2447112.166667,26.7400,-91.9950,0300,1.67,6.03,6.2570,15.4800
1987-11-12 16:30:00 UTC,2447112.187500,26.7400,-91.9950,0300,1.72,5.92,6.1648,16.2007
1987-11-12 17:00:00 UTC,2447112.208333,26.7400,-91.9950,0300,1.95,6.73,7.0068,16.1588
1987-11-12 17:30:00 UTC,2447112.229167,26.7400,-91.9950,0300,2.56,6.52,7.0046,21.4369
1987-11-12 18:00:00 UTC,2447112.250000,26.7400,-91.9950,0300,2.00,5.93,6.2582,18.6376
1987-11-12 18:30:00 UTC,2447112.270833,26.7400,-91.9950,0300,1.43,5.42,5.6055,14.7800
1987-11-12 19:00:00 UTC,2447112.291667,26.7400,-91.9950,0300,-0.35,5.13,5.1419,356.0970
1987-11-12 19:30:00 UTC,2447112.312500,26.7400,-91.9950,0300,-0.14,5.60,5.6017,358.5679
1987-11-12 20:00:00 UTC,2447112.333333,26.7400,-91.9950,0300,-1.11,5.78,5.8856,349.1292
1987-11-12 20:30:00 UTC,2447112.354167,26.7400,-91.9950,0300,-1.82,6.28,6.5384,343.8380
1987-11-12 21:00:00 UTC,2447112.375000,26.7400,-91.9950,0300,-1.95,7.60,7.8462,345.6095
1987-11-12 21:30:00 UTC,2447112.395833,26.7400,-91.9950,0300,-1.77,7.45,7.6574,346.6352
1987-11-12 22:00:00 UTC,2447112.416667,26.7400,-91.9950,0300,-2.45,7.75,8.1280,342.4568
1987-11-12 22:30:00 UTC,2447112.437500,26.7400,-91.9950,0300,-3.58,8.83,9.5281,337.9306
1987-11-12 23:00:00 UTC,2447112.458333,26.7400,-91.9950,0300,-3.73,9.37,10.0851,338.2935
1987-11-12 23:30:00 UTC,2447112.479167,26.7400,-91.9950,0300,-3.23,10.44,10.9282,342.8086
1987-11-13 00:00:00 UTC,2447112.500000,26.7400,-91.9950,0300,-2.71,10.58,10.9216,345.6329
1987-11-13 00:30:00 UTC,2447112.520833,26.7400,-91.9950,0300,-2.92,10.82,11.2071,344.8973
1987-11-13 01:00:00 UTC,2447112.541667,26.7400,-91.9950,0300,-3.87,11.51,12.1432,341.4158
1987-11-13 01:30:00 UTC,2447112.562500,26.7400,-91.9950,0300,-3.61,12.47,12.9820,343.8546
1987-11-13 02:00:00 UTC,2447112.583333,26.7400,-91.9950,0300,-3.22,12.57,12.9759,345.6318
1987-11-13 02:30:00 UTC,2447112.604167,26.7400,-91.9950,0300,-1.71,13.15,13.2607,352.5909
1987-11-13 03:00:00 UTC,2447112.625000,26.7400,-91.9950,0300,-1.23,13.20,13.2572,354.6765
1987-11-13 03:30:00 UTC,2447112.645833,26.7400,-91.9950,0300,-0.56,12.78,12.7923,357.4910
1987-11-13 04:00:00 UTC,2447112.666667,26.7400,-91.9950,0300,0.39,12.23,12.2362,1.8265
1987-11-13 04:30:00 UTC,2447112.687500,26.7400,-91.9950,0300,0.62,12.31,12.3256,2.8833
1987-11-13 05:00:00 UTC,2447112.708333,26.7400,-91.9950,0300,1.22,11.52,11.5844,6.0452
1987-11-13 05:30:00 UTC,2447112.729167,26.7400,-91.9950,0300,1.16,12.46,12.5139,5.3188
1987-11-13 06:00:00 UTC,2447112.750000,26.7400,-91.9950,0300,0.86,13.70,13.7270,3.5920
1987-11-13 06:30:00 UTC,2447112.770833,26.7400,-91.9950,0300,1.02,13.60,13.6382,4.2892
1987-11-13 07:00:00 UTC,2447112.791667,26.7400,-91.9950,0300,1.33,12.54,12.6103,6.0542
1987-11-13 07:30:00 UTC,2447112.812500,26.7400,-91.9950,0300,1.73,12.68,12.7975,7.7692
1987-11-13 08:00:00 UTC,2447112.833333,26.7400,-91.9950,0300,1.62,11.84,11.9503,7.7911
1987-11-13 08:30:00 UTC,2447112.854167,26.7400,-91.9950,0300,2.46,10.65,10.9304,13.0064
1987-11-13 09:00:00 UTC,2447112.875000,26.7400,-91.9950,0300,2.73,10.10,10.4625,15.1254
1987-11-13 09:30:00 UTC,2447112.895833,26.7400,-91.9950,0300,3.90,10.51,11.2103,20.3586
1987-11-13 10:00:00 UTC,2447112.916667,26.7400,-91.9950,0300,3.59,9.33,9.9968,21.0457
1987-11-13 10:30:00 UTC,2447112.937500,26.7400,-91.9950,0300,3.62,8.91,9.6173,22.1112
1987-11-13 11:00:00 UTC,2447112.958333,26.7400,-91.9950,0300,4.90,10.08,11.2079,25.9249
1987-11-13 11:30:00 UTC,2447112.979167,26.7400,-91.9950,0300,4.78,9.83,10.9306,25.9321
1987-11-13 12:00:00 UTC,2447113.000000,26.7400,-91.9950,0300,6.27,8.61,10.6511,36.0630
1987-11-13 12:30:00 UTC,2447113.020833,26.7400,-91.9950,0300,5.13,7.24,8.8732,35.3200
1987-11-13 13:00:00 UTC,2447113.041667,26.7400,-91.9950,0300,4.96,7.47,8.9667,33.5837
1987-11-13 13:30:00 UTC,2447113.062500,26.7400,-91.9950,0300,5.35,6.73,8.5974,38.4829
1987-11-13 14:00:00 UTC,2447113.083333,26.7400,-91.9950,0300,6.16,7.02,9.3395,41.2667
1987-11-13 14:30:00 UTC,2447113.104167,26.7400,-91.9950,0300,5.53,6.70,8.6874,39.5353
1987-11-13 15:00:00 UTC,2447113.125000,26.7400,-91.9950,0300,4.02,6.30,7.4733,32.5418
1987-11-13 15:30:00 UTC,2447113.145833,26.7400,-91.9950,0300,4.10,5.56,6.9082,36.4054
1987-11-13 16:00:00 UTC,2447113.166667,26.7400,-91.9950,0300,3.86,4.56,5.9744,40.2476
1987-11-13 16:30:00 UTC,2447113.187500,26.7400,-91.9950,0300,3.54,4.35,5.6084,39.1385
1987-11-13 17:00:00 UTC,2447113.208333,26.7400,-91.9950,0300,0.75,4.80,4.8582,8.8807
1987-11-13 17:30:00 UTC,2447113.229167,26.7400,-91.9950,0300,-0.26,5.13,5.1366,357.0986
1987-11-13 18:00:00 UTC,2447113.250000,26.7400,-91.9950,0300,-0.92,4.96,5.0446,349.4920
1987-11-13 18:30:00 UTC,2447113.270833,26.7400,-91.9950,0300,-3.09,6.08,6.8202,333.0592
1987-11-13 19:00:00 UTC,2447113.291667,26.7400,-91.9950,0300,-2.96,7.06,7.6554,337.2535
1987-11-13 19:30:00 UTC,2447113.312500,26.7400,-91.9950,0300,-2.28,7.70,8.0305,343.5058
1987-11-13 20:00:00 UTC,2447113.333333,26.7400,-91.9950,0300,-2.74,8.15,8.5983,341.4175
1987-11-13 20:30:00 UTC,2447113.354167,26.7400,-91.9950,0300,-2.87,7.60,8.1238,339.3119
1987-11-13 21:00:00 UTC,2447113.375000,26.7400,-91.9950,0300,-3.01,6.94,7.5646,336.5528
1987-11-13 21:30:00 UTC,2447113.395833,26.7400,-91.9950,0300,-4.83,6.65,8.2190,324.0085
1987-11-13 22:00:00 UTC,2447113.416667,26.7400,-91.9950,0300,-4.29,8.19,9.2456,332.3540
1987-11-13 22:30:00 UTC,2447113.437500,26.7400,-91.9950,0300,-3.94,9.39,10.1831,337.2373
1987-11-13 23:00:00 UTC,2447113.458333,26.7400,-91.9950,0300,-2.76,10.48,10.8373,345.2457
1987-11-13 23:30:00 UTC,2447113.479167,26.7400,-91.9950,0300,-2.14,11.10,11.3044,349.0877
1987-11-14 00:00:00 UTC,2447113.500000,26.7400,-91.9950,0300,-3.06,10.10,10.5534,343.1447
1987-11-14 00:30:00 UTC,2447113.520833,26.7400,-91.9950,0300,-3.57,9.63,10.2704,339.6594
1987-11-14 01:00:00 UTC,2447113.541667,26.7400,-91.9950,0300,-2.41,10.47,10.7438,347.0374
1987-11-14 01:30:00 UTC,2447113.562500,26.7400,-91.9950,0300,-2.87,10.64,11.0203,344.9045
1987-11-14 02:00:00 UTC,2447113.583333,26.7400,-91.9950,0300,-2.80,10.66,11.0216,345.2829
1987-11-14 02:30:00 UTC,2447113.604167,26.7400,-91.9950,0300,-1.98,10.65,10.8325,349.4681
1987-11-14 03:00:00 UTC,2447113.625000,26.7400,-91.9950,0300,-2.98,10.80,11.2036,344.5744
1987-11-14 03:30:00 UTC,2447113.645833,26.7400,-91.9950,0300,-3.20,11.32,11.7636,344.2152
1987-11-14 04:00:00 UTC,2447113.666667,26.7400,-91.9950,0300,-3.84,11.42,12.0483,341.4147
1987-11-14 04:30:00 UTC,2447113.687500,26.7400,-91.9950,0300,-3.13,10.57,11.0237,343.5049
1987-11-14 05:00:00 UTC,2447113.708333,26.7400,-91.9950,0300,-2.99,10.12,10.5525,343.5400
1987-11-14 05:30:00 UTC,2447113.729167,26.7400,-91.9950,0300,-2.67,11.56,11.8643,346.9945
1987-11-14 06:00:00 UTC,2447113.750000,26.7400,-91.9950,0300,-2.45,10.94,11.2110,347.3770
1987-11-14 06:30:00 UTC,2447113.770833,26.7400,-91.9950,0300,-0.77,11.18,11.2065,356.0601
1987-11-14 07:00:00 UTC,2447113.791667,26.7400,-91.9950,0300,0.40,12.41,12.4164,1.8461
1987-11-14 07:30:00 UTC,2447113.812500,26.7400,-91.9950,0300,0.42,12.88,12.8868,1.8677
1987-11-14 08:00:00 UTC,2447113.833333,26.7400,-91.9950,0300,-0.92,13.42,13.4515,356.0782
1987-11-14 08:30:00 UTC,2447113.854167,26.7400,-91.9950,0300,-0.50,13.06,13.0696,357.8075
1987-11-14 09:00:00 UTC,2447113.875000,26.7400,-91.9950,0300,0.87,12.58,12.6100,3.9561
1987-11-14 09:30:00 UTC,2447113.895833,26.7400,-91.9950,0300,2.46,12.74,12.9753,10.9289
1987-11-14 10:00:00 UTC,2447113.916667,26.7400,-91.9950,0300,1.22,13.02,13.0770,5.3531
1987-11-14 10:30:00 UTC,2447113.937500,26.7400,-91.9950,0300,1.34,12.63,12.7009,6.0562
1987-11-14 11:00:00 UTC,2447113.958333,26.7400,-91.9950,0300,1.78,11.91,12.0423,8.5002
1987-11-14 11:30:00 UTC,2447113.979167,26.7400,-91.9950,0300,1.19,11.24,11.3028,6.0435
1987-11-14 12:00:00 UTC,2447114.000000,26.7400,-91.9950,0300,0.37,11.57,11.5759,1.8317
1987-11-14 12:30:00 UTC,2447114.020833,26.7400,-91.9950,0300,1.39,10.65,10.7403,7.4360
1987-11-14 13:00:00 UTC,2447114.041667,26.7400,-91.9950,0300,1.11,11.15,11.2051,5.6852
1987-11-14 13:30:00 UTC,2447114.062500,26.7400,-91.9950,0300,0.71,11.37,11.3921,3.5732
1987-11-14 14:00:00 UTC,2447114.083333,26.7400,-91.9950,0300,0.65,12.87,12.8864,2.8913
1987-11-14 14:30:00 UTC,2447114.104167,26.7400,-91.9950,0300,0.67,11.84,11.8589,3.2388
1987-11-14 15:00:00 UTC,2447114.125000,26.7400,-91.9950,0300,0.80,11.55,11.5777,3.9622
1987-11-14 15:30:00 UTC,2447114.145833,26.7400,-91.9950,0300,1.64,12.03,12.1413,7.7630
1987-11-14 16:00:00 UTC,2447114.166667,26.7400,-91.9950,0300,2.63,12.04,12.3239,12.3221
1987-11-14 16:30:00 UTC,2447114.187500,26.7400,-91.9950,0300,2.16,11.19,11.3966,10.9254
1987-11-14 17:00:00 UTC,2447114.208333,26.7400,-91.9950,0300,2.03,9.59,9.8025,11.9519
1987-11-14 17:30:00 UTC,2447114.229167,26.7400,-91.9950,0300,1.79,9.93,10.0900,10.2185
1987-11-14 18:00:00 UTC,2447114.250000,26.7400,-91.9950,0300,2.32,9.24,9.5268,14.0946
1987-11-14 18:30:00 UTC,2447114.270833,26.7400,-91.9950,0300,1.15,8.42,8.4982,7.7773
1987-11-14 19:00:00 UTC,2447114.291667,26.7400,-91.9950,0300,1.00,9.47,9.5227,6.0279
1987-11-14 19:30:00 UTC,2447114.312500,26.7400,-91.9950,0300,0.67,9.69,9.7131,3.9553
1987-11-14 20:00:00 UTC,2447114.333333,26.7400,-91.9950,0300,0.47,10.64,10.6504,2.5293
1987-11-14 20:30:00 UTC,2447114.354167,26.7400,-91.9950,0300,0.34,10.45,10.4555,1.8635
1987-11-14 21:00:00 UTC,2447114.375000,26.7400,-91.9950,0300,0.33,10.08,10.0854,1.8751
1987-11-14 21:30:00 UTC,2447114.395833,26.7400,-91.9950,0300,-0.31,9.62,9.6250,358.1543
1987-11-14 22:00:00 UTC,2447114.416667,26.7400,-91.9950,0300,0.30,9.43,9.4348,1.8222
1987-11-14 22:30:00 UTC,2447114.437500,26.7400,-91.9950,0300,0.45,8.96,8.9713,2.8752